Location: Brunsbüttel
(52.3892°N, 10.6138°E)
Time: 05:56:47
(UTC+00:00)

Cosmos 2369 - Pass Details

Date: 19 May 2025
Orbit: 840 x 852 km, 71.0° (Epoch: 22 June)

Event Time Altitude Azimuth Distance (km) Brightness Sun altitude
Rises 21:29:56 0° 328° (NNW) 3,416 8.8 -14.2°
Reaches altitude 10° 21:32:24 10° 327° (NNW) 2,476 7.5 -14.3°
Maximum altitude 21:38:04 75° 243° (WSW) 876 3.7 -14.7°
Enters shadow 21:41:44 23° 161° (SSE) 1,738 4.7 -14.9°
